This is the latest recevied weather packets stored in our database for station/object KC0OOO-WX. If no packets are shown the sender has not sent any weather packets the latest 10 day(s).
| Time | Temp. | Humidity | Pressure | Rain* | Wind** | Luminosity | Snow |
|---|---|---|---|---|---|---|---|
| 1777411707 | 15.56° C | 25% | 1020.7 hPa | 0 mm | - | - | - |
| 1777411107 | 15.56° C | 20% | 1020.7 hPa | 0 mm | - | - | - |
| 1777410507 | 15° C | 22% | 1020.7 hPa | 0 mm | - | - | - |
| 1777409877 | 16.11° C | 21% | 1021 hPa | 0 mm | - | - | - |
| 1777409247 | 14.44° C | 23% | 1021 hPa | 0 mm | - | - | - |
| 1777408617 | 15° C | 21% | 1021 hPa | 0 mm | - | - | - |
| 1777407987 | 15° C | 24% | 1021 hPa | 0 mm | - | - | - |
| 1777407387 | 15.56° C | 25% | 1021 hPa | 0 mm | - | - | - |
| 1777406787 | 15° C | 24% | 1021 hPa | 0 mm | - | - | - |
| 1777406187 | 13.89° C | 25% | 1021 hPa | 0 mm | - | - | - |
| 1777405587 | 13.89° C | 27% | 1021 hPa | 0 mm | - | - | - |
| 1777404987 | 13.89° C | 25% | 1021 hPa | 0 mm | - | - | - |
| 1777404357 | 13.89° C | 26% | 1021 hPa | 0 mm | - | - | - |
| 1777403757 | 13.89° C | 27% | 1021 hPa | 0 mm | - | - | - |
| 1777403157 | 14.44° C | 26% | 1021.3 hPa | 0 mm | - | - | - |
| 1777401957 | 13.33° C | 28% | 1021.3 hPa | 0 mm | - | - | - |
| 1777401242 | 12.78° C | 28% | 1021.3 hPa | 0 mm | - | - | - |
| 1777400612 | 12.22° C | 26% | 1021.3 hPa | 0 mm | - | - | - |
| 1777400012 | 12.78° C | 28% | 1021.3 hPa | 0 mm | - | - | - |
| 1777399412 | 12.22° C | 28% | 1021.3 hPa | 0 mm | - | - | - |
| 1777398812 | 11.67° C | 31% | 1021.3 hPa | 0 mm | - | - | - |
| 1777398212 | 11.11° C | 32% | 1021.7 hPa | 0 mm | - | - | - |
| 1777397612 | 11.11° C | 29% | 1021.7 hPa | 0 mm | - | - | - |
| 1777397012 | 10.56° C | 30% | 1021.7 hPa | 0 mm | - | - | - |
| 1777396382 | 10.56° C | 31% | 1021.7 hPa | 0 mm | - | - | - |
* Rain latest hour (hover to see other rain measurements)
** Current wind speed in m/s (hover to see current wind gust speed)